OBJECT F

Satellite information

Favourite Embed

Satellite Type and Status

UNKNOWNIN ORBIT

Key statistics

Satellite OBJECT F at a glance.

Uptime

206

Days in orbit

Revolutions

≈ 15.2

Per day

Orbit

SSO

Sun Synchronous Orbit

Inclination

97.5

Latest

Satellite identification and parameters

Extended collection of information and parameters for OBJECT F.

Object identification

Identified? True

Debris? False

Object name: OBJECT F

International designator: 2025-108F

Object number (NORAD): 64092

Object ID (CCSDS): 64092

Country: PEOPLES REPUBLIC OF CHINA (PRC)

Current information (Y/N): Y

RCS size: MEDIUM

Orbital parameters

Period: 94.741 minutes

Inclination: 97.4895 deg

SMA: 6884.18 km

Apoapsis: 514.364 km

Periapsis: 497.726 km

RAAN: 59.5794 deg

Eccentricy: 0.00120838

Argument of periapsis: 299.9516 deg

Mean anomaly: 60.0519 deg

Mean motion: 15.19932917 rev/day

Mean motion (dot): 0.00025926 rev/day2

B* drag term: 0.0012037568 1/REarth

Two-line elements (TLE)

Creation date: Dec. 12, 2025, 10:14 a.m.

Reference frame: TEME

Reference center: EARTH

Epoch: Dec. 12, 2025, 7:46 a.m. UTC

TLE line 0: 0 OBJECT F

TLE line 1: 1 64092U 25108F 25346.32374953 .00025926 00000-0 12038-2 0 9993

TLE line 2: 2 64092 97.4895 59.5794 0012084 299.9516 60.0519 15.19932917 31046

Live tracking on map

Real-time ground track for satellite OBJECT F.

In-orbit conjunctions

There are no conjunctions computed for OBJECT F, at the moment. Check back to stay up to date, as we update our databases every day.

Go to all conjunctions

Associated space launch

Carried 6 satellites to Sun-synchronous orbit, including commercial Earth observation satellites Taijing-3-04 & Taijing-4-02A: * Taijing-3-04 * Taijing-4-02A * Xingrui-11 * Xiguang-1 02 * Xingjiyuan-1 * Cube-108 001

OBJECT F was lifted into orbit during the mission ‘Kinetica 1 | 6 satellites’, on board a Kinetica 1 space rocket.

The launch took place on May 21, 2025, 4:05 a.m. from Launch Area 130.

For more information about the launch, click the button.

Launch to space Kinetica 1 | 6 satellites
Kinetica 1 | 6 satellites

Agency: N/A

Status: Launch Successful

Launch date: May 21, 2025, 4:05 a.m. UTC

Rocket: Kinetica 1

Launch pad: Launch Area 130

Location: Jiuquan Satellite Launch Center, People's Republic of China

...

Latest news about this satellite

News about space launch
Launch Roundup: SpaceX to start new Starlink shell; China, Russia to launch unknown payloads

This week, SpaceX will begin building a new shell for its Starlink constellation, launching from… The post Launch Roundup: SpaceX to start new Starlink shell; China, Russia to launch unknown payloads appeared first on NASASpaceFlight.com.


Newsletter sign-up

Weekly statistics, charts and insights to help you stay on top of the space industry.